Regional Weather Roundup
Issued by NWS Little Rock, AR

Home | Current Version | Previous Version | Text Only | Print | Product List | Glossary On
Versions: 1 2 3 4 5 6 7 8 9 10 11 12 13 14 15 16 17 18 19 20 21 22 23 24 25 26 27 28 29 30 31 32 33 34 35 36 37 38 39 40 41 42 43 44 45 46 47 48 49 50
000
ASUS44 KLZK 020605
RWRLZK

WEATHER ROUNDUP FOR ARKANSAS
NATIONAL WEATHER SERVICE LITTLE ROCK AR
100 AM CDT SAT AUG 02 2014

NOTE: "FAIR" INDICATES FEW OR NO CLOUDS BELOW 12,000 FEET WITH NO
SIGNIFICANT WEATHER AND/OR OBSTRUCTIONS TO VISIBILITY.

ARZ001-003-010-029-020700-
NORTHWEST ARKANSAS

CITY           SKY/WX    TMP DP  RH WIND       PRES   REMARKS
FAYETTEVILLE   PTCLDY    66  65  96 S3        30.11S
6HR MIN TEMP:  66; 6HR MAX TEMP:  78;

FORT SMITH     CLEAR     70  67  90 CALM      30.07S
6HR MIN TEMP:  69; 6HR MAX TEMP:  80;

HARRISON       CLEAR     65  65 100 CALM      30.11S FOG
6HR MIN TEMP:  65; 6HR MAX TEMP:  78;

BENTONVILLE    CLEAR     68  63  83 S3        30.11S
6HR MIN TEMP:  68; 6HR MAX TEMP:  81;

ROGERS         CLEAR     68  64  87 CALM      30.12S
6HR MIN TEMP:  68; 6HR MAX TEMP:  80;

SILOAM SPGS    PTCLDY    66  61  82 S3        30.12R
6HR MIN TEMP:  66; 6HR MAX TEMP:  81;

HIGHFILL       CLEAR     66  64  93 CALM      30.11R
6HR MIN TEMP:  65; 6HR MAX TEMP:  81;

$$

ARZ004-005-016-020700-
NORTH CENTRAL ARKANSAS

CITY           SKY/WX    TMP DP  RH WIND       PRES   REMARKS
BATESVILLE     CLEAR     68  66  94 W5        30.07S
6HR MIN TEMP:  68; 6HR MAX TEMP:  77;

FLIPPIN        CLEAR     66  64  94 CALM      30.09F
6HR MIN TEMP:  66; 6HR MAX TEMP:  79;

MTN HOME       CLEAR     67  66  97 CALM      30.08S
6HR MIN TEMP:  66; 6HR MAX TEMP:  77;

$$

ARZ040-041-020700-
WEST CENTRAL ARKANSAS

CITY           SKY/WX    TMP DP  RH WIND       PRES   REMARKS
MENA           CLEAR     64  63  94 CALM      30.09R
MOUNT IDA      FOG       67  66  97 CALM      30.05S VSB 1/4
6HR MIN TEMP:  67; 6HR MAX TEMP:  71; 6HR PCP: TRACE;

$$

ARZ009-017-025-026-028-020700-
NORTHEAST ARKANSAS

CITY           SKY/WX    TMP DP  RH WIND       PRES   REMARKS
JONESBORO      CLEAR     68  65  90 CALM      30.05S
6HR MIN TEMP:  68; 6HR MAX TEMP:  80;

NEWPORT        CLEAR     70  68  93 NW5       30.06S
6HR MIN TEMP:  70; 6HR MAX TEMP:  81; 6HR PCP: TRACE;

WALNUT RIDGE   CLEAR     70  55  60 NW5       30.05S
6HR MIN TEMP:  70; 6HR MAX TEMP:  81;

BLYTHEVILLE    CLEAR     68  65  90 NE3       30.05S
6HR MIN TEMP:  68; 6HR MAX TEMP:  83;

$$

ARZ022-023-033-042-044-020700-
CENTRAL ARKANSAS

CITY           SKY/WX    TMP DP  RH WIND       PRES   REMARKS
LITTLE ROCK    MOCLDY    73  68  84 NW3       30.05S
6HR MIN TEMP:  72; 6HR MAX TEMP:  74; 6HR PCP:  0.02;

N LITTLE ROCK    N/A     70  70  99 NW7       30.05S
6HR MIN TEMP:  70; 6HR MAX TEMP:  75;

JACKSONVILLE   CLEAR     69  69  99 W2        30.05S
6HR MIN TEMP:  69; 6HR MAX TEMP:  78; 6HR PCP: TRACE;

SEARCY         CLEAR     70  68  93 NW5       30.06S
6HR MIN TEMP:  69; 6HR MAX TEMP:  78;

HOT SPRINGS    MOCLDY    69  67  93 CALM      30.05F
6HR MIN TEMP:  69; 6HR MAX TEMP:  72;

RUSSELLVILLE   CLEAR     67  65  93 CALM      30.06F FOG
6HR MIN TEMP:  67; 6HR MAX TEMP:  76;

CLINTON        FAIR      66  66 100 CALM      30.08S FOG
$$

ARZ036-020700-
EAST ARKANSAS

CITY           SKY/WX    TMP DP  RH WIND       PRES   REMARKS
WEST MEMPHIS   CLEAR     71  69  93 CALM      30.02S
6HR MIN TEMP:  71; 6HR MAX TEMP:  82;

$$

ARZ050-053-066-070-073-020700-
SOUTHWEST ARKANSAS

CITY           SKY/WX    TMP DP  RH WIND       PRES   REMARKS
ARKADELPHIA    LGT RAIN  70  70 100 CALM      30.04F
6HR MIN TEMP:  70; 6HR MAX TEMP:  72; 6HR PCP: TRACE;

CAMDEN         CLOUDY    68  66  94 CALM      30.03S FOG
TEXARKANA      CLOUDY    69  67  93 NE3       30.04S
6HR MIN TEMP:  69; 6HR MAX TEMP:  71;

EL DORADO      CLOUDY    69  68  96 N5        30.03R FOG
6HR MIN TEMP:  67; 6HR MAX TEMP:  69;

DE QUEEN       FOG       66  66 100 CALM      30.04S VSB 1/2
6HR MIN TEMP:  66; 6HR MAX TEMP:  75; 6HR PCP: TRACE;

$$

ARZ056-057-069-020700-
SOUTHEAST ARKANSAS

CITY           SKY/WX    TMP DP  RH WIND       PRES   REMARKS
PINE BLUFF     CLOUDY    71  66  84 N5        30.03S
6HR MIN TEMP:  70; 6HR MAX TEMP:  72; 6HR PCP: TRACE;

STUTTGART      CLOUDY    72  68  88 W5        30.04S
6HR MIN TEMP:  72; 6HR MAX TEMP:  75;

MONTICELLO     CLOUDY    71  68  90 CALM      30.02S
6HR MIN TEMP:  71; 6HR MAX TEMP:  73;


$$





USA.gov is the U.S. government's official web portal to all federal, state and local government web resources and services.